This is the latest recevied weather packets stored in our database for station/object K1BES. If no packets are shown the sender has not sent any weather packets the latest 10 day(s).
| Time | Temp. | Humidity | Pressure | Rain* | Wind** | Luminosity | Snow |
|---|---|---|---|---|---|---|---|
| 1777939267 | 26.11° C | 66% | 1015.5 hPa | 0 mm | - | 3 W/m² | - |
| 1777938963 | 26.11° C | 65% | 1015.5 hPa | 0 mm | - | 6 W/m² | - |
| 1777938660 | 26.67° C | 64% | 1015.4 hPa | 0 mm | - | 8 W/m² | - |
| 1777938357 | 26.67° C | 63% | 1015.4 hPa | 0 mm | - | 11 W/m² | - |
| 1777938054 | 26.67° C | 63% | 1015.4 hPa | 0 mm | - | 14 W/m² | - |
| 1777937749 | 26.67° C | 63% | 1015.3 hPa | 0 mm | - | 14 W/m² | - |
| 1777937446 | 26.67° C | 63% | 1015.1 hPa | 0 mm | - | 14 W/m² | - |
| 1777937144 | 26.67° C | 63% | 1014.9 hPa | 0 mm | - | 17 W/m² | - |
| 1777936841 | 26.67° C | 63% | 1015.2 hPa | 0 mm | - | 21 W/m² | - |
| 1777936538 | 26.67° C | 62% | 1015 hPa | 0 mm | - | 24 W/m² | - |
| 1777936234 | 26.67° C | 62% | 1015.1 hPa | 0 mm | - | 31 W/m² | - |
| 1777935930 | 26.67° C | 65% | 1015 hPa | 0 mm | - | 38 W/m² | - |
| 1777935629 | 26.67° C | 66% | 1014.9 hPa | 0 mm | - | 39 W/m² | - |
| 1777935326 | 26.67° C | 66% | 1015 hPa | 0 mm | - | 35 W/m² | - |
| 1777935023 | 26.67° C | 67% | 1014.7 hPa | 0 mm | - | 28 W/m² | - |
| 1777934719 | 27.22° C | 66% | 1014.9 hPa | 0 mm | - | 37 W/m² | - |
| 1777934417 | 27.22° C | 66% | 1015.1 hPa | 0 mm | - | 56 W/m² | - |
| 1777934113 | 27.22° C | 66% | 1014.8 hPa | 0 mm | - | 83 W/m² | - |
| 1777933809 | 27.22° C | 65% | 1015.1 hPa | 0 mm | - | 100 W/m² | - |
| 1777933506 | 27.22° C | 66% | 1015 hPa | 0 mm | - | 81 W/m² | - |
| 1777933204 | 27.22° C | 66% | 1015.1 hPa | 0 mm | - | 70 W/m² | - |
| 1777932901 | 27.78° C | 62% | 1015 hPa | 0 mm | - | 65 W/m² | - |
| 1777932598 | 28.33° C | 61% | 1015.1 hPa | 0 mm | - | 88 W/m² | - |
| 1777932294 | 27.78° C | 61% | 1014.7 hPa | 0 mm | - | 153 W/m² | - |
| 1777931991 | 27.22° C | 64% | 1014.9 hPa | 0 mm | - | 170 W/m² | - |
* Rain latest hour (hover to see other rain measurements)
** Current wind speed in m/s (hover to see current wind gust speed)